Location: Newark
(37.8444°N, 127.0614°E)
Time: 14:19:55
(UTC+00:00)

CAS-4B - Visible Passes

Search period start: 18 January 2020 00:00
Search period end: 28 January 2020 00:00
Orbit: 530 x 544 km, 43.0° (Epoch: 17 January)

Date Brightness Start Highest point End Pass type
(mag) Time Alt. Az. Time Alt. Az. Time Alt. Az.
18 Jan ? 20:08:57 25° ENE 20:08:57 25° ENE 20:10:45 10° ENE visible
18 Jan ? 21:44:19 18° WNW 21:47:01 43° N 21:50:56 10° ENE visible
19 Jan ? 19:59:25 18° ENE 19:59:25 18° ENE 20:00:35 10° ENE visible
19 Jan ? 21:34:47 23° WNW 21:36:54 41° N 21:40:47 10° ENE visible
20 Jan ? 19:49:48 14° ENE 19:49:48 14° ENE 19:50:24 10° ENE visible
20 Jan ? 21:25:09 27° NW 21:26:48 39° N 21:30:40 10° ENE visible
21 Jan ? 19:40:08 11° ENE 19:40:08 11° ENE 19:40:13 10° ENE visible
21 Jan ? 21:15:29 31° NW 21:16:42 39° N 21:20:33 10° ENE visible
22 Jan ? 21:05:47 35° NNW 21:06:35 39° N 21:10:27 10° ENE visible
23 Jan ? 20:56:04 39° N 20:56:29 40° N 21:00:22 10° ENE visible
24 Jan ? 20:46:21 42° N 20:46:22 42° N 20:50:17 10° E visible
25 Jan ? 20:36:40 44° NNE 20:36:40 44° NNE 20:40:13 10° E visible
26 Jan ? 20:26:59 42° NE 20:26:59 42° NE 20:30:07 10° E visible
26 Jan ? 22:02:21 10° WNW 22:06:20 52° SSW 22:10:18 10° SE visible
27 Jan ? 20:17:21 36° ENE 20:17:21 36° ENE 20:20:02 10° E visible
27 Jan ? 21:52:43 13° W 21:56:06 41° SSW 21:59:57 10° SE visible
